FW5707 Weather Reports


time (UTC)temp
C
wind
direction
speed
KPH
gust
KPH
rain 1hr
cm
rain 24hr
cm
rain mn
cm
humidity
%
barometer
mb
20260502204519 23 81 0.0 0.0 0.00 2.64 0.05 42 1018.0
20260502203057 23 38 0.0 0.0 0.00 2.64 0.05 45 1018.3
20260502201535 23 63 0.0 0.0 0.00 2.64 0.05 45 1018.6
20260502200108 23 66 0.0 0.0 0.00 2.64 0.05 45 1018.6
20260502194534 23 70 0.0 0.0 0.00 3.05 0.05 43 1018.9
20260502193004 23 37 0.0 0.0 0.00 3.05 0.05 43 1019.0
20260502191544 23 59 0.0 0.0 0.00 3.05 0.05 49 1019.0
20260502190005 23 342 0.0 0.0 0.03 3.05 0.05 46 1019.2
20260502184553 23 29 0.0 0.0 0.03 3.33 0.05 46 1019.3
20260502183012 23 51 0.0 0.0 0.03 3.33 0.05 46 1019.4
20260502181553 22 77 0.0 0.0 0.03 3.33 0.05 53 1019.8
20260502163037 21 45 0.0 0.0 0.00 3.45 0.03 56 1020.5
20260502161601 20 11 0.0 0.0 0.00 3.45 0.03 60 1020.4
20260502151512 18 49 0.0 0.0 0.00 3.51 0.03 73 1019.9
20260502123015 11 189 0.0 0.0 0.00 4.62 0.03 93 1018.1
20260502121600 10 195 0.0 0.0 0.00 4.62 0.03 93 1018.0
20260502114501 11 53 0.0 0.0 0.00 4.65 0.03 93 1017.5
20260502113051 11 53 0.0 0.0 0.00 4.65 0.03 93 1017.2
20260502111519 11 53 0.0 0.0 0.00 4.65 0.03 93 1016.8
20260502110058 11 53 0.0 0.0 0.00 4.65 0.03 93 1016.7
20260502104533 11 53 0.0 0.0 0.00 4.65 0.03 93 1016.6
20260502103006 11 53 0.0 0.0 0.00 4.65 0.03 93 1016.6
20260502101541 11 53 0.0 0.0 0.00 4.65 0.03 93 1016.4
20260502071530 11 53 0.0 0.0 0.00 4.78 0.03 92 1015.9
20260502070100 11 53 0.0 0.0 0.00 4.78 0.03 92 1016.0
20260502064531 11 53 0.0 0.0 0.00 4.80 0.03 92 1015.9
20260502063007 11 53 0.0 0.0 0.00 4.80 0.03 92 1016.2
20260502061538 11 46 0.0 0.0 0.00 4.80 0.03 92 1016.3
20260502054531 11 54 0.0 0.0 0.03 4.88 0.03 92 1016.5
20260502053055 11 46 0.0 0.0 0.03 4.88 0.03 92 1016.9
20260502051533 11 65 0.0 0.0 0.05 4.88 0.03 92 1016.9
20260502050113 11 60 0.0 0.0 0.10 4.85 0.00 92 1016.5
20260502044532 11 41 0.0 0.0 0.15 5.08 4.85 92 1017.1
20260502043108 11 65 0.0 0.0 0.20 5.08 4.85 92 1016.7
20260502041532 11 68 0.0 0.0 0.23 5.05 4.83 92 1017.1
20260502040008 11 50 0.0 0.0 0.18 4.95 4.72 92 1016.6
20260502034535 11 57 0.0 0.0 0.15 4.93 4.70 92 1016.7
20260502033016 11 49 0.0 0.0 0.10 4.88 4.65 92 1016.8
20260502031548 11 55 0.0 0.0 0.08 4.83 4.60 92 1016.6
20260502030006 11 40 0.0 0.0 0.08 4.78 4.55 92 1016.5
20260502024536 11 53 0.0 0.0 0.10 4.78 4.55 92 1016.1
20260502023006 11 65 0.0 0.0 0.10 4.78 4.55 92 1015.4
20260502021545 11 39 0.0 0.0 0.08 4.75 4.52 92 1015.5
20260502020016 11 58 0.0 0.0 0.00 4.67 4.45 92 1015.2
20260502014549 11 57 0.0 0.0 0.00 4.70 4.45 92 1014.6
20260502013014 11 47 0.0 0.0 0.08 4.70 4.45 92 1014.0
20260502011545 11 63 0.0 0.0 0.20 4.70 4.45 92 1013.8
20260502010015 11 70 0.0 0.0 0.33 4.70 4.45 92 1014.1
20260502004606 11 38 0.0 0.0 0.48 4.70 4.45 92 1014.2
20260502003024 11 61 0.0 0.0 0.53 4.60 4.34 92 1014.1
20260502001608 11 52 0.0 0.0 0.53 4.50 4.24 92 1014.6
20260502000046 12 43 0.0 0.0 0.56 4.37 4.11 92 1014.6
20260501234503 12 61 0.0 0.0 0.56 4.22 3.96 92 1015.3
20260501233042 12 96 0.0 0.0 0.69 4.06 3.81 92 1015.4
20260501231505 12 5 0.0 0.0 0.79 3.94 3.68 92 1014.8
20260501230038 12 42 0.0 0.0 0.84 3.81 3.56 92 1014.4
20260501224605 12 51 0.0 0.0 0.76 3.66 3.40 92 1013.9
20260501223039 12 28 0.0 0.0 0.53 3.38 3.12 92 1014.0
20260501221502 12 27 0.0 0.0 0.30 3.12 2.84 92 1014.0
20260501220037 12 50 0.0 0.0 0.18 2.97 2.72 92 1012.7
20260501214511 12 54 0.0 0.0 0.15 2.87 2.62 92 1012.2
20260501213106 12 68 0.0 0.0 0.20 2.84 2.59 92 1011.7
20260501211508 12 64 0.0 0.0 0.23 2.84 2.57 92 1011.6
20260501210048 12 41 0.0 0.0 0.28 2.82 2.54 92 1011.7